Location: ????????
(38.4362°N, 22.8767°E)
Time: 04:59:54
(UTC+00:00)

FENGYUN 1C DEB - Pass Details

Date: 15 October 2025
Orbit: 841 x 1273 km, 99.2° (Epoch: 16 November)

Event Time Altitude Azimuth Distance (km) Brightness Sun altitude
Rises 03:22:48 0° 11° (N) 3,405 ? -15.4°
Reaches altitude 10° 03:25:08 10° 9° (N) 2,466 ? -14.9°
Maximum altitude 03:30:31 71° 287° (WNW) 904 ? -13.9°
Drops below altitude 10° 03:36:05 10° 204° (SSW) 2,558 ? -12.8°
Sets 03:38:33 0° 202° (SSW) 3,542 ? -12.3°
